Location: Misciano
(43.5000°N, 11.9500°E)
Time: 21:05:09
(UTC+00:00)

SL-16 R/B - Pass Details

Date: 13 August 2020
Orbit: 843 x 845 km, 71.0° (Epoch: 22 September)

Event Time Altitude Azimuth Distance (km) Brightness Sun altitude
Rises 20:23:59 0° 336° (NNW) 3,414 6.6 -20.0°
Reaches altitude 10° 20:26:27 10° 339° (NNW) 2,476 5.6 -20.3°
Maximum altitude 20:32:07 69° 63° (ENE) 905 2.2 -21.0°
Enters shadow 20:33:54 44° 131° (SE) 1,158 2.4 -21.2°
